Weather in Oleksandropil

Ukraine / Dnipropetrovsk Region     48°35′55″N   36°33′10″E
temp.,
°C
wind,
m/s
gust,
m/s
humid.,
%
clouds,
%
prec.,
mm/h
press.,
hPa
HPBL,
m
26 june, sun
sun2600:00+17ne3796100 2.1 1013178
03:00+16ne4109628 2.7 1014248
06:00+17ne38945 0.3 1014254
09:00+21ene4675100 0.3 1015637
12:00+26ene6755100 0.0 10151598
15:00+27ene785070 0.0 10142144
18:00+23ne51168100 0.0 1015488
21:00+22ne51266100 0.0 1016437
27 june, mon
mon2700:00+20ne6147570 0.0 1016396
03:00+19ne61477100 0.0 1017384
06:00+18ne61280100 0.0 1018375
09:00+22ene7106519 0.0 1017684
12:00+26ene8950100 0.0 10181593
15:00+27ene794016 0.0 10171899
18:00+26ne68462 0.0 10171133
21:00+20ne5136373 0.0 1018285
28 june, tue
tue2800:00+18ne5126928 0.0 1018225
03:00+16ne4975100 0.0 1018153
06:00+16ne4975100 0.0 1018186
09:00+22ne5756100 0.0 1017529
12:00+26ene5643100 0.0 10171196
15:00+28ne5642100 0.0 10161578
18:00+28ne4753100 0.0 10161345
21:00+24ne3469100 0.0 101689
29 june, wed
wed2900:00+21ne3585100 0.3 101673
03:00+19ne4118442 0.3 1017208
06:00+19ene4118113 0.0 1017285
09:00+25ene676132 0.0 1018619
12:00+28ene67485 0.0 10181528
15:00+29ne66455 0.0 10171829
18:00+27ne56485 0.0 10171487
21:00+20ne511645 0.0 1018244
30 june, thu
thu3000:00+17ene412671 0.0 1019240
03:00+16ene410720 0.0 1018201
06:00+15ene48735 0.0 1019207
09:00+22e444783 0.0 1019606
12:00+25ene45386 0.0 10191605
15:00+27ne55330 0.0 10191905
18:00+25ne55400 0.0 10181844
21:00+19ne47620 0.0 1019104